Norris Observed Data For Previous 48 Hours

Caption
Day and Hour Reservoir Elevation (behind dam)* Tailwater Elevation (below dam)* Average Hourly Discharge*
11/17/2018 2 AM EST 1,010.33 828.11 10,171
11/17/2018 3 AM EST 1,010.35 828.18 10,174
11/17/2018 4 AM EST 1,010.36 828.06 10,177
11/17/2018 5 AM EST 1,010.37 828.06 10,175
11/17/2018 6 AM EST 1,010.39 828.18 10,175
11/17/2018 7 AM EST 1,010.39 828.12 10,177
11/17/2018 8 AM EST 1,010.40 828.11 10,174
11/17/2018 9 AM EST 1,010.41 828.12 10,176
11/17/2018 10 AM EST 1,010.43 828.13 10,175
11/17/2018 11 AM EST 1,010.43 828.10 10,184
11/17/2018 12 PM EST 1,010.44 828.07 10,185
11/17/2018 1 PM EST 1,010.44 827.95 10,185
11/17/2018 2 PM EST 1,010.45 828.13 10,187
11/17/2018 3 PM EST 1,010.45 828.04 10,192
11/17/2018 4 PM EST 1,010.45 828.11 10,193
11/17/2018 5 PM EST 1,010.46 828.03 10,196
11/17/2018 6 PM EST 1,010.46 828.13 10,191
11/17/2018 7 PM EST 1,010.48 828.10 10,195
11/17/2018 8 PM EST 1,010.47 828.14 10,196
11/17/2018 9 PM EST 1,010.48 828.13 10,193
11/17/2018 10 PM EST 1,010.48 828.11 10,193
11/17/2018 11 PM EST 1,010.49 828.14 10,193
11/18/2018 12 AM EST 1,010.49 828.08 10,194
11/18/2018 1 AM EST 1,010.49 828.12 10,193
11/18/2018 2 AM EST 1,010.49 828.17 10,189
11/18/2018 3 AM EST 1,010.48 828.06 10,195
11/18/2018 4 AM EST 1,010.48 828.10 10,193
11/18/2018 5 AM EST 1,010.48 828.09 10,192
11/18/2018 6 AM EST 1,010.48 828.11 10,188
11/18/2018 7 AM EST 1,010.47 828.08 10,191
11/18/2018 8 AM EST 1,010.47 828.14 10,193
11/18/2018 9 AM EST 1,010.46 828.15 10,194
11/18/2018 10 AM EST 1,010.47 828.05 10,187
11/18/2018 11 AM EST 1,010.46 828.14 10,191
11/18/2018 12 PM EST 1,010.45 828.05 10,194
11/18/2018 1 PM EST 1,010.45 828.02 10,194
11/18/2018 2 PM EST 1,010.44 828.11 10,193
11/18/2018 3 PM EST 1,010.42 828.11 10,194
11/18/2018 4 PM EST 1,010.42 828.09 10,187
11/18/2018 5 PM EST 1,010.41 828.05 10,189
11/18/2018 6 PM EST 1,010.40 828.14 10,179
11/18/2018 7 PM EST 1,010.40 828.14 10,181
11/18/2018 8 PM EST 1,010.40 828.14 10,187
11/18/2018 9 PM EST 1,010.39 828.06 10,184
11/18/2018 10 PM EST 1,010.38 828.06 10,184
11/18/2018 11 PM EST 1,010.37 828.10 10,185
11/19/2018 12 AM EST 1,010.36 828.05 10,181
11/19/2018 1 AM EST 1,010.36 828.12 10,187
11/19/2018 2 AM EST 1,010.34 828.07 10,182
11/19/2018 3 AM EST 1,010.34 828.12 10,182
11/19/2018 4 AM EST 1,010.32 828.13 10,182
11/19/2018 5 AM EST 1,010.31 828.04 10,180
11/19/2018 6 AM EST 1,010.30 828.12 10,181
11/19/2018 7 AM EST 1,010.29 828.10 10,181
11/19/2018 8 AM EST 1,010.27 828.06 10,178
11/19/2018 9 AM EST 1,010.27 828.11 10,179
11/19/2018 10 AM EST 1,010.27 828.10 10,175
11/19/2018 11 AM EST 1,010.26 828.09 10,181
11/19/2018 12 PM EST 1,010.22 828.14 10,183

Elevations are in feet above sea level. Discharges are in cubic feet per second and are reported at the end of the hour.